{"data":{"norad_id":57501,"intl_designator":"2023-113G","name":"STARLINK-30072","alt_names":[],"object_type":"PAYLOAD","status":"ACTIVE","operator":null,"country":"US","launch_date":"2023-08-07","launch_site_code":"AFETR","launch_vehicle":null,"mission":null,"orbit_class":"UNKNOWN","rcs_meters":null,"size_class":null,"mass_kg":null,"dimensions":null,"purposes":["comms"],"wikipedia_slug":null,"has_3d_model":false,"image_url":null,"decayed_at":null,"tle_current":{"epoch":"2026-09-20T22:40:57.478944Z","epoch_age_seconds":89186,"freshness":"FRESH","line1":"1 57501U 23113G   26263.94510971 -.00000469  00000+0 -75173-5 0  9991","line2":"2 57501  43.0019 353.6429 0000822 290.0377  70.0386 15.27584420173428","mean_motion":15.2758442,"eccentricity":8.22e-5,"inclination_deg":43.0019,"raan_deg":353.6429,"arg_perigee_deg":290.0377,"mean_anomaly_deg":70.0386,"bstar":-7.5173e-6,"rev_number":17342,"period_min":94.266475956857,"perigee_km":482.4718725923,"apogee_km":483.59984941065,"semimajor_km":6861.1728610015,"source":"CELESTRAK","updated_at":"2026-09-21T09:00:33.633254Z"}}}